SWA2285 KSMF-KBUR

Flight info

Callsign SWA2285
Flight time 0h 51m
Altitude 31000
Route FTHIL3 FRA REBRG ROKKR3
Aircraft B737/M-SADE2E3GIJ4RWZ/LB1D1

Departure

Time 2026-05-05 16:43
Airport Sacramento International Airport (KSMF)

Arrival

Time 2026-05-05 17:34
Airport Hollywood Burbank/Bob Hope Airport (KBUR)
Time Latitude Longitude Altitude Speed Heading
2026-05-05 16:30 38.69545 -121.59531 22 ft 0 kts 101°
2026-05-05 16:35 38.69548 -121.59551 24 ft 4 kts 90°
2026-05-05 16:35 38.69543 -121.59583 23 ft 4 kts 53°
2026-05-05 16:35 38.69525 -121.59599 25 ft 2 kts
2026-05-05 16:35 38.69519 -121.59599 24 ft 0 kts
2026-05-05 16:38 38.69520 -121.59599 22 ft 1 kts
2026-05-05 16:39 38.69559 -121.59598 22 ft 7 kts
2026-05-05 16:39 38.69638 -121.59595 22 ft 15 kts
2026-05-05 16:39 38.69700 -121.59672 22 ft 14 kts 275°
2026-05-05 16:39 38.69701 -121.59798 22 ft 15 kts 272°
2026-05-05 16:40 38.69776 -121.59862 23 ft 15 kts
2026-05-05 16:40 38.69880 -121.59859 22 ft 15 kts
2026-05-05 16:40 38.69989 -121.59858 22 ft 22 kts
2026-05-05 16:40 38.70187 -121.59855 22 ft 31 kts
2026-05-05 16:41 38.70397 -121.59853 22 ft 29 kts
2026-05-05 16:41 38.70592 -121.59848 22 ft 27 kts
2026-05-05 16:41 38.70720 -121.59918 22 ft 19 kts 275°
2026-05-05 16:41 38.70715 -121.60085 21 ft 10 kts 263°
2026-05-05 16:42 38.70656 -121.60113 22 ft 10 kts 181°
2026-05-05 16:42 38.70509 -121.60115 26 ft 48 kts 180°
2026-05-05 16:42 38.69882 -121.60122 25 ft 128 kts 179°
2026-05-05 16:42 38.68843 -121.60093 379 ft 162 kts 180°
2026-05-05 16:43 38.67692 -121.59995 1289 ft 168 kts 160°
2026-05-05 16:43 38.66757 -121.58979 1816 ft 194 kts 125°
2026-05-05 16:43 38.65978 -121.57433 2316 ft 209 kts 122°
2026-05-05 16:43 38.65236 -121.55888 3230 ft 207 kts 121°
2026-05-05 16:44 38.64455 -121.54271 3835 ft 225 kts 120°
2026-05-05 16:44 38.63572 -121.52454 4106 ft 256 kts 121°
2026-05-05 16:44 38.62359 -121.50707 4710 ft 271 kts 145°
2026-05-05 16:44 38.60752 -121.49440 5668 ft 274 kts 148°
2026-05-05 16:45 38.59073 -121.48187 6707 ft 283 kts 148°
2026-05-05 16:45 38.57348 -121.46911 7747 ft 289 kts 147°
2026-05-05 16:45 38.55589 -121.45612 8797 ft 296 kts 146°
2026-05-05 16:45 38.53789 -121.44281 9830 ft 302 kts 145°
2026-05-05 16:46 38.51940 -121.42910 10663 ft 316 kts 145°
2026-05-05 16:46 38.49951 -121.41426 10942 ft 348 kts 145°
2026-05-05 16:46 38.47803 -121.39826 11577 ft 362 kts 146°
2026-05-05 16:46 38.45615 -121.38207 12534 ft 367 kts 146°
2026-05-05 16:47 38.43403 -121.36573 13558 ft 370 kts 146°
2026-05-05 16:47 38.41183 -121.34933 14440 ft 376 kts 146°
2026-05-05 16:47 38.38908 -121.33252 15294 ft 381 kts 146°
2026-05-05 16:47 38.36602 -121.31548 16149 ft 386 kts 146°
2026-05-05 16:48 38.34257 -121.29815 17007 ft 392 kts 146°
2026-05-05 16:48 38.31886 -121.28064 17872 ft 397 kts 146°
2026-05-05 16:48 38.29483 -121.26289 18671 ft 403 kts 146°
2026-05-05 16:48 38.27037 -121.24484 19414 ft 407 kts 146°
2026-05-05 16:49 38.24579 -121.22673 20208 ft 409 kts 145°
2026-05-05 16:49 38.22131 -121.20870 20973 ft 413 kts 145°
2026-05-05 16:49 38.19684 -121.19069 21665 ft 418 kts 145°
2026-05-05 16:49 38.17141 -121.17198 22358 ft 422 kts 144°
2026-05-05 16:50 38.14583 -121.15317 23074 ft 426 kts 144°
2026-05-05 16:50 38.12001 -121.13420 23749 ft 430 kts 144°
2026-05-05 16:50 38.09431 -121.11534 24329 ft 434 kts 144°
2026-05-05 16:50 38.06809 -121.09613 24939 ft 437 kts 143°
2026-05-05 16:51 38.04166 -121.07676 25527 ft 440 kts 143°
2026-05-05 16:51 38.01508 -121.05731 26096 ft 443 kts 143°
2026-05-05 16:51 37.98827 -121.03770 26616 ft 447 kts 143°
2026-05-05 16:51 37.96120 -121.01791 27162 ft 450 kts 143°
2026-05-05 16:52 37.93400 -120.99805 27716 ft 453 kts 143°
2026-05-05 16:52 37.90665 -120.97811 28239 ft 456 kts 142°
2026-05-05 16:52 37.87906 -120.95800 28735 ft 459 kts 142°
2026-05-05 16:52 37.85128 -120.93776 29189 ft 463 kts 142°
2026-05-05 16:53 37.82322 -120.91734 29560 ft 468 kts 142°
2026-05-05 16:53 37.79498 -120.89681 30114 ft 468 kts 142°
2026-05-05 16:53 37.76673 -120.87635 30717 ft 464 kts 142°
2026-05-05 16:53 37.73912 -120.85637 31061 ft 465 kts 142°
2026-05-05 16:54 37.68300 -120.81573 31049 ft 462 kts 142°
2026-05-05 16:54 37.62731 -120.77546 31030 ft 462 kts 142°
2026-05-05 16:55 37.57149 -120.73512 31033 ft 463 kts 142°
2026-05-05 16:55 37.51555 -120.69477 31015 ft 464 kts 142°
2026-05-05 16:56 37.45968 -120.65418 31037 ft 464 kts 142°
2026-05-05 16:56 37.40359 -120.61409 31033 ft 463 kts 142°
2026-05-05 16:57 37.34758 -120.57410 31042 ft 463 kts 142°
2026-05-05 16:57 37.29156 -120.53404 31045 ft 463 kts 142°
2026-05-05 16:58 37.23554 -120.49400 31032 ft 463 kts 142°
2026-05-05 16:58 37.17949 -120.45402 31048 ft 463 kts 142°
2026-05-05 16:59 37.12379 -120.41434 31044 ft 464 kts 142°
2026-05-05 16:59 37.06750 -120.37432 31054 ft 465 kts 142°
2026-05-05 17:00 37.01127 -120.33441 31043 ft 465 kts 142°
2026-05-05 17:00 36.95495 -120.29453 31059 ft 465 kts 142°
2026-05-05 17:01 36.89866 -120.25471 31044 ft 465 kts 142°
2026-05-05 17:01 36.84243 -120.21502 31056 ft 464 kts 142°
2026-05-05 17:02 36.78621 -120.17538 31054 ft 464 kts 142°
2026-05-05 17:02 36.73000 -120.13583 31052 ft 464 kts 142°
2026-05-05 17:03 36.67377 -120.09632 31060 ft 464 kts 142°
2026-05-05 17:03 36.61674 -120.05632 31038 ft 465 kts 142°
2026-05-05 17:04 36.56179 -120.01785 31044 ft 465 kts 142°
2026-05-05 17:04 36.50533 -119.97839 31047 ft 465 kts 142°
2026-05-05 17:05 36.44884 -119.93897 31053 ft 467 kts 142°
2026-05-05 17:05 36.39210 -119.89943 31054 ft 469 kts 142°
2026-05-05 17:06 36.33512 -119.85979 31042 ft 471 kts 142°
2026-05-05 17:06 36.27797 -119.82013 31111 ft 470 kts 142°
2026-05-05 17:07 36.22103 -119.78070 31071 ft 467 kts 142°
2026-05-05 17:07 36.16449 -119.74159 31056 ft 464 kts 142°
2026-05-05 17:08 36.10859 -119.70296 31083 ft 463 kts 143°
2026-05-05 17:08 36.05237 -119.66414 31057 ft 463 kts 143°
2026-05-05 17:09 35.99554 -119.62712 30996 ft 476 kts 154°
2026-05-05 17:09 35.96235 -119.61945 31042 ft 491 kts 173°
2026-05-05 17:09 35.92840 -119.62320 31104 ft 497 kts 185°
2026-05-05 17:10 35.86014 -119.63850 31055 ft 500 kts 186°
2026-05-05 17:10 35.79180 -119.65349 31060 ft 498 kts 185°
2026-05-05 17:11 35.72337 -119.66735 31047 ft 498 kts 185°
2026-05-05 17:11 35.65561 -119.68002 31017 ft 495 kts 179°
2026-05-05 17:12 35.62215 -119.67763 31097 ft 483 kts 167°
2026-05-05 17:12 35.58849 -119.67201 31128 ft 483 kts 167°
2026-05-05 17:12 35.52132 -119.66128 31039 ft 489 kts 168°
2026-05-05 17:13 35.45399 -119.65072 31040 ft 484 kts 164°
2026-05-05 17:13 35.38943 -119.63151 30997 ft 479 kts 160°
2026-05-05 17:14 35.35714 -119.62107 30363 ft 480 kts 160°
2026-05-05 17:14 35.32488 -119.61109 29848 ft 474 kts 160°
2026-05-05 17:14 35.29304 -119.60167 29135 ft 470 kts 161°
2026-05-05 17:14 35.26137 -119.59251 28599 ft 463 kts 162°
2026-05-05 17:15 35.23056 -119.58250 27899 ft 455 kts 154°
2026-05-05 17:15 35.20360 -119.56402 27396 ft 436 kts 138°
2026-05-05 17:15 35.17977 -119.54162 26761 ft 431 kts 136°
2026-05-05 17:15 35.15632 -119.51880 26174 ft 428 kts 137°
2026-05-05 17:16 35.13310 -119.49622 25564 ft 426 kts 137°
2026-05-05 17:16 35.10991 -119.47394 24961 ft 424 kts 138°
2026-05-05 17:16 35.08664 -119.45185 24371 ft 422 kts 139°
2026-05-05 17:16 35.06343 -119.43000 23746 ft 421 kts 139°
2026-05-05 17:17 35.04028 -119.40825 23051 ft 419 kts 140°
2026-05-05 17:17 35.01756 -119.38694 22417 ft 415 kts 140°
2026-05-05 17:17 34.99463 -119.36585 21839 ft 411 kts 143°
2026-05-05 17:17 34.97021 -119.34792 21340 ft 406 kts 150°
2026-05-05 17:18 34.94548 -119.33206 20821 ft 399 kts 152°
2026-05-05 17:18 34.92098 -119.31655 20277 ft 394 kts 151°
2026-05-05 17:18 34.89699 -119.30087 19774 ft 388 kts 150°
2026-05-05 17:18 34.87347 -119.28511 19277 ft 384 kts 150°
2026-05-05 17:19 34.85029 -119.26954 18777 ft 380 kts 151°
2026-05-05 17:19 34.82717 -119.25422 18282 ft 377 kts 152°
2026-05-05 17:19 34.80422 -119.23913 17750 ft 374 kts 152°
2026-05-05 17:19 34.78131 -119.22409 17196 ft 372 kts 152°
2026-05-05 17:20 34.75863 -119.20917 16701 ft 370 kts 152°
2026-05-05 17:20 34.73598 -119.19427 16204 ft 370 kts 152°
2026-05-05 17:20 34.71336 -119.17941 15718 ft 369 kts 152°
2026-05-05 17:20 34.69091 -119.16466 15248 ft 365 kts 152°
2026-05-05 17:21 34.66897 -119.14947 14736 ft 361 kts 147°
2026-05-05 17:21 34.64828 -119.13254 14303 ft 356 kts 145°
2026-05-05 17:21 34.62810 -119.11547 13840 ft 352 kts 145°
2026-05-05 17:22 34.58803 -119.08233 12814 ft 344 kts 145°
2026-05-05 17:22 34.56862 -119.06642 12426 ft 339 kts 145°
2026-05-05 17:22 34.54915 -119.05042 11953 ft 336 kts 144°
2026-05-05 17:22 34.52998 -119.03468 11624 ft 330 kts 144°
2026-05-05 17:23 34.51107 -119.01915 11197 ft 326 kts 145°
2026-05-05 17:23 34.49258 -119.00406 10878 ft 319 kts 145°
2026-05-05 17:23 34.47457 -118.98936 10516 ft 314 kts 145°
2026-05-05 17:23 34.45658 -118.97468 10185 ft 309 kts 145°
2026-05-05 17:24 34.43900 -118.96033 9931 ft 297 kts 145°
2026-05-05 17:24 34.42220 -118.94673 9644 ft 291 kts 146°
2026-05-05 17:24 34.40542 -118.93322 9356 ft 285 kts 146°
2026-05-05 17:24 34.38899 -118.92000 9054 ft 282 kts 146°
2026-05-05 17:25 34.37291 -118.90702 8825 ft 282 kts 145°
2026-05-05 17:25 34.36754 -118.90231 8750 ft 283 kts 141°
2026-05-05 17:25 34.34308 -118.87571 8276 ft 286 kts 136°
2026-05-05 17:25 34.32870 -118.85932 8036 ft 282 kts 136°
2026-05-05 17:26 34.31446 -118.84335 7763 ft 277 kts 136°
2026-05-05 17:26 34.30036 -118.82777 7535 ft 272 kts 137°
2026-05-05 17:26 34.28634 -118.81238 7296 ft 273 kts 137°
2026-05-05 17:26 34.27615 -118.80121 7123 ft 273 kts 137°
2026-05-05 17:27 34.26734 -118.79038 6921 ft 273 kts 126°
2026-05-05 17:27 34.25620 -118.76312 6631 ft 268 kts 112°
2026-05-05 17:27 34.25128 -118.74926 6328 ft 273 kts 112°
2026-05-05 17:27 34.24380 -118.72835 6039 ft 269 kts 112°
2026-05-05 17:28 34.23635 -118.70773 5718 ft 266 kts 112°
2026-05-05 17:28 34.22891 -118.68736 5429 ft 262 kts 112°
2026-05-05 17:28 34.22164 -118.66757 5120 ft 258 kts 113°
2026-05-05 17:28 34.21433 -118.64776 4848 ft 255 kts 113°
2026-05-05 17:29 34.20722 -118.62850 4688 ft 243 kts 114°
2026-05-05 17:29 34.20103 -118.61027 4536 ft 227 kts 101°
2026-05-05 17:29 34.20033 -118.59206 4437 ft 208 kts 87°
2026-05-05 17:29 34.20036 -118.57514 4301 ft 195 kts 89°
2026-05-05 17:30 34.20026 -118.55906 4017 ft 191 kts 89°
2026-05-05 17:30 34.20011 -118.54287 3609 ft 194 kts 89°
2026-05-05 17:30 34.19993 -118.52655 3242 ft 195 kts 89°
2026-05-05 17:30 34.19972 -118.51020 2860 ft 194 kts 90°
2026-05-05 17:31 34.19951 -118.49433 2507 ft 184 kts 92°
2026-05-05 17:31 34.19933 -118.47925 2206 ft 173 kts 91°
2026-05-05 17:31 34.19917 -118.46541 2060 ft 154 kts 91°
2026-05-05 17:31 34.19906 -118.45331 2022 ft 142 kts 92°
2026-05-05 17:32 34.19915 -118.44120 1979 ft 144 kts 92°
2026-05-05 17:32 34.19916 -118.42914 1804 ft 144 kts 91°
2026-05-05 17:32 34.19896 -118.41731 1604 ft 137 kts 92°
2026-05-05 17:32 34.19879 -118.40593 1371 ft 134 kts 92°
2026-05-05 17:33 34.19836 -118.39441 1189 ft 139 kts 92°
2026-05-05 17:33 34.19817 -118.38294 994 ft 133 kts 91°
2026-05-05 17:33 34.19802 -118.37179 809 ft 131 kts 91°
2026-05-05 17:33 34.19781 -118.36101 698 ft 115 kts 91°
2026-05-05 17:34 34.19772 -118.35473 696 ft 59 kts 90°
2026-05-05 17:34 34.19768 -118.35166 695 ft 13 kts 92°
2026-05-05 17:34 34.19767 -118.35135 696 ft 0 kts 91°
2026-05-05 17:39 34.19763 -118.35127 696 ft 6 kts 128°
2026-05-05 17:40 34.19723 -118.35123 692 ft 4 kts 142°
2026-05-05 17:40 34.19720 -118.35119 692 ft 2 kts 139°
2026-05-05 17:40 34.19701 -118.35108 689 ft 4 kts 165°
2026-05-05 17:40 34.19679 -118.35107 688 ft 2 kts 180°
2026-05-05 17:41 34.19674 -118.35107 690 ft 0 kts 180°